Change the Weather History Date:

Monday, September 30, 2013

  Actual Average (KORF) Record (KORF)
Temperature  
Mean Temperature 60 °F 68 °F  
Max Temperature 73 °F 75 °F 91 °F (1986)
Min Temperature 46 °F 60 °F 40 °F (1888)
Degree Days  
Heating Degree Days 6 1  
Month to date heating degree days 8  
Since 1 July heating degree days 11  
Cooling Degree Days 0 4  
Month to date cooling degree days 230  
Year to date cooling degree days 1565  
Growing Degree Days 10 (Base 50)    
Moisture  
Dew Point 52 °F    
Average Humidity 77    
Maximum Humidity 100    
Minimum Humidity 43    
Precipitation  
Precipitation 0.00 in 0.13 in 7.85 in (2010)
Month to date precipitation 4.76  
Year to date precipitation 36.70  
Snow  
Snow 0.00 in 0.00 in 0.00 in (2002)
Month to date snowfall 0.0  
Since 1 July snowfall 0.0  
Snow Depth -    
Sea Level Pressure  
Sea Level Pressure 30.04 in    
Wind  
Wind Speed 2 mph (North)    
Max Wind Speed 12 mph    
Max Gust Speed 18 mph    
Visibility 8 miles    
Events Fog    
T = Trace of Precipitation, MM = Missing Value Source: NWS Daily Summary

Daily Weather History Graph

Daily Weather History Graph

Search for Another Location

Airport or City:

Trip Planner

Search our weather history database for the weather conditions in past years. The results will help you decide how hot, cold, wet, or windy it might be!

Date:

Astronomy

Sep. 30, 2013 Rise Set
Actual Time 6:59 AM EDT 6:49 PM EDT
Civil Twilight 6:34 AM EDT 7:15 PM EDT
Nautical Twilight 6:04 AM EDT 7:45 PM EDT
Astronomical Twilight 5:33 AM EDT 8:15 PM EDT
Moon 2:40 AM EDT (9/30) 4:14 PM EDT (9/30)
Length of Visible Light 12h 41m
Length of Day
11h 49m
Waning Crescent, 19% of the Moon is Illuminated
Sep 30
Waning Crescent
Oct 4
New
Oct 11
First Quarter
Oct 18
Full
Oct 26
Last Quarter

Hourly Weather History & Observations

Time (EDT) Temp. Dew Point Humidity Pressure Visibility Wind Dir Wind Speed Gust Speed Precip Events Conditions
12:15 AM 51.8 °F 50.0 °F 94% 30.04 in 5.0 mi Calm Calm - N/A   Clear
12:35 AM 51.8 °F 51.8 °F 100% 30.04 in 10.0 mi Calm Calm - N/A   Clear
12:55 AM 51.8 °F 50.0 °F 94% 30.04 in 10.0 mi Calm Calm - N/A   Clear
1:15 AM 51.8 °F 50.0 °F 94% 30.04 in 5.0 mi Calm Calm - N/A   Clear
1:35 AM 46.4 °F 46.4 °F 100% 30.04 in 0.8 mi Calm Calm - N/A   Mostly Cloudy
1:55 AM 48.2 °F 48.2 °F 100% 30.04 in 2.5 mi Calm Calm - N/A   Scattered Clouds
2:15 AM 46.4 °F 44.6 °F 93% 30.05 in 10.0 mi Calm Calm - N/A   Scattered Clouds
2:35 AM 51.8 °F 50.0 °F 94% 30.04 in 10.0 mi Calm Calm - N/A   Clear
2:55 AM 48.2 °F 48.2 °F 100% 30.03 in 10.0 mi Calm Calm - N/A   Clear
3:15 AM 48.2 °F 48.2 °F 100% 30.04 in 7.0 mi Calm Calm - N/A   Clear
3:35 AM 48.2 °F 48.2 °F 100% 30.03 in 10.0 mi Calm Calm - N/A   Clear
3:55 AM 50.0 °F 48.2 °F 94% 30.03 in 10.0 mi Calm Calm - N/A   Clear
4:15 AM 50.0 °F 48.2 °F 94% 30.04 in 7.0 mi Calm Calm - N/A   Clear
4:35 AM 50.0 °F 48.2 °F 94% 30.03 in 1.0 mi Calm Calm - N/A   Mostly Cloudy
4:55 AM 51.8 °F 50.0 °F 94% 30.03 in 1.2 mi Calm Calm - N/A   Mostly Cloudy
5:15 AM 48.2 °F 48.2 °F 100% 30.03 in 0.2 mi Calm Calm - N/A Fog Fog
5:35 AM 48.2 °F 46.4 °F 93% 30.03 in 1.2 mi Calm Calm - N/A   Mostly Cloudy
5:55 AM 48.2 °F 48.2 °F 100% 30.03 in 2.0 mi Calm Calm - N/A   Mostly Cloudy
6:15 AM 48.2 °F 46.4 °F 93% 30.04 in 0.8 mi Calm Calm - N/A   Mostly Cloudy
6:35 AM 48.2 °F 48.2 °F 100% 30.04 in 1.8 mi Calm Calm - N/A   Mostly Cloudy
6:55 AM 50.0 °F 48.2 °F 94% 30.05 in 10.0 mi Calm Calm - N/A   Scattered Clouds
7:15 AM 50.0 °F 48.2 °F 94% 30.05 in 4.0 mi Calm Calm - N/A   Scattered Clouds
7:35 AM 51.8 °F 50.0 °F 94% 30.05 in 10.0 mi Calm Calm - N/A   Scattered Clouds
7:55 AM 51.8 °F 51.8 °F 100% 30.05 in 10.0 mi Calm Calm - N/A   Clear
8:15 AM 55.4 °F 53.6 °F 94% 30.06 in 10.0 mi Calm Calm - N/A   Scattered Clouds
8:35 AM 59.0 °F 57.2 °F 94% 30.06 in 10.0 mi NW 5.8 mph - N/A   Mostly Cloudy
8:55 AM 64.4 °F 57.2 °F 77% 30.06 in 10.0 mi NNW 4.6 mph - N/A   Overcast
9:15 AM 64.4 °F 57.2 °F 77% 30.06 in 10.0 mi WNW 6.9 mph - N/A   Mostly Cloudy
9:35 AM 66.2 °F 57.2 °F 73% 30.06 in 10.0 mi NNW 4.6 mph - N/A   Clear
9:55 AM 68.0 °F 55.4 °F 64% 30.06 in 10.0 mi NNW 10.4 mph - N/A   Clear
10:15 AM 68.0 °F 53.6 °F 60% 30.06 in 10.0 mi North 5.8 mph - N/A   Scattered Clouds
10:35 AM 69.8 °F 53.6 °F 56% 30.06 in 10.0 mi NW 10.4 mph - N/A   Scattered Clouds
10:55 AM 71.6 °F 50.0 °F 46% 30.06 in 10.0 mi NNW 10.4 mph - N/A   Scattered Clouds
11:15 AM 71.6 °F 51.8 °F 50% 30.06 in 10.0 mi North 9.2 mph - N/A   Clear
11:35 AM 71.6 °F 51.8 °F 50% 30.06 in 10.0 mi North 6.9 mph - N/A   Clear
11:55 AM 73.4 °F 51.8 °F 47% 30.06 in 10.0 mi North 9.2 mph 16.1 mph N/A   Clear
12:15 PM 73.4 °F 53.6 °F 50% 30.05 in 10.0 mi North 6.9 mph - N/A   Clear
12:35 PM 71.6 °F 51.8 °F 50% 30.05 in 10.0 mi North 10.4 mph 18.4 mph N/A   Clear
12:55 PM 71.6 °F 51.8 °F 50% 30.05 in 10.0 mi NNE 9.2 mph - N/A   Clear
1:15 PM 71.6 °F 53.6 °F 53% 30.04 in 10.0 mi North 11.5 mph - N/A   Clear
1:35 PM 73.4 °F 53.6 °F 50% 30.04 in 10.0 mi North 10.4 mph 17.3 mph N/A   Clear
1:55 PM 73.4 °F 51.8 °F 47% 30.03 in 10.0 mi North 10.4 mph - N/A   Clear
2:15 PM 73.4 °F 51.8 °F 47% 30.02 in 10.0 mi North 10.4 mph - N/A   Clear
2:35 PM 73.4 °F 51.8 °F 47% 30.02 in 10.0 mi North 9.2 mph 16.1 mph N/A   Clear
2:55 PM 71.6 °F 51.8 °F 50% 30.01 in 10.0 mi North 9.2 mph - N/A   Clear
3:15 PM 71.6 °F 48.2 °F 43% 30.01 in 10.0 mi North 6.9 mph - N/A   Clear
3:35 PM 73.4 °F 50.0 °F 44% 30.01 in 10.0 mi North 6.9 mph - N/A   Clear
3:55 PM 73.4 °F 50.0 °F 44% 30.00 in 10.0 mi North 8.1 mph - N/A   Clear
4:15 PM 73.4 °F 51.8 °F 47% 30.00 in 10.0 mi North 6.9 mph - N/A   Clear
4:35 PM 73.4 °F 51.8 °F 47% 30.01 in 10.0 mi NW 6.9 mph - N/A   Clear
4:55 PM 73.4 °F 51.8 °F 47% 30.01 in 10.0 mi North 6.9 mph - N/A   Scattered Clouds
5:15 PM 73.4 °F 51.8 °F 47% 30.01 in 10.0 mi NNW 6.9 mph - N/A   Mostly Cloudy
5:35 PM 71.6 °F 53.6 °F 53% 30.02 in 10.0 mi North 3.5 mph - N/A   Mostly Cloudy
5:55 PM 71.6 °F 53.6 °F 53% 30.03 in 10.0 mi North 3.5 mph - N/A   Scattered Clouds
6:15 PM 69.8 °F 55.4 °F 60% 30.03 in 10.0 mi ENE 3.5 mph - N/A   Scattered Clouds
6:35 PM 68.0 °F 55.4 °F 64% 30.03 in 10.0 mi Calm Calm - N/A   Mostly Cloudy
6:55 PM 66.2 °F 55.4 °F 68% 30.03 in 10.0 mi Calm Calm - N/A   Mostly Cloudy
7:15 PM 62.6 °F 55.4 °F 77% 30.04 in 10.0 mi Calm Calm - N/A   Scattered Clouds
7:35 PM 62.6 °F 55.4 °F 77% 30.05 in 10.0 mi Calm Calm - N/A   Clear
7:55 PM 60.8 °F 55.4 °F 82% 30.05 in 10.0 mi Calm Calm - N/A   Clear
8:15 PM 57.2 °F 55.4 °F 94% 30.06 in 10.0 mi Calm Calm - N/A   Clear
8:35 PM 57.2 °F 55.4 °F 94% 30.07 in 10.0 mi Calm Calm - N/A   Mostly Cloudy
8:55 PM 59.0 °F 55.4 °F 88% 30.07 in 10.0 mi Calm Calm - N/A   Overcast
9:15 PM 60.8 °F 57.2 °F 88% 30.07 in 10.0 mi Calm Calm - N/A   Overcast
9:35 PM 60.8 °F 57.2 °F 88% 30.07 in 10.0 mi Calm Calm - N/A   Overcast
9:55 PM 59.0 °F 55.4 °F 88% 30.07 in 10.0 mi Calm Calm - N/A   Overcast
10:15 PM 57.2 °F 55.4 °F 94% 30.07 in 10.0 mi Calm Calm - N/A   Mostly Cloudy
10:35 PM 57.2 °F 55.4 °F 94% 30.07 in 10.0 mi Calm Calm - N/A   Scattered Clouds
10:55 PM 57.2 °F 55.4 °F 94% 30.07 in 10.0 mi Calm Calm - N/A   Clear
11:15 PM 53.6 °F 51.8 °F 94% 30.07 in 10.0 mi Calm Calm - N/A   Clear
11:35 PM 53.6 °F 53.6 °F 100% 30.06 in 1.0 mi Calm Calm - N/A   Mostly Cloudy
11:55 PM 53.6 °F 51.8 °F 94% 30.06 in 2.0 mi Calm Calm - N/A   Mostly Cloudy